Time,TemperatureF,DewpointF,PressureIn,WindDirection,WindDirectionDegrees,WindSpeedMPH,WindSpeedGustMPH,Humidity,HourlyPrecipIn,Conditions,Clouds,dailyrainin,SoftwareType,DateUTC
2013-05-12 00:01:00,50.0,46.3,29.76,WNW,292,4.3,5.8,87,0.00,RA,,0.00,WeatherDisplay:10.37,2013-05-12 04:01:00,
2013-05-12 00:02:00,50.0,46.3,29.76,WSW,248,4.3,5.8,87,0.00,RA,,0.00,WeatherDisplay:10.37,2013-05-12 04:02:00,
2013-05-12 00:03:00,49.8,46.1,29.75,NW,315,4.3,4.6,87,0.00,RA,,0.00,WeatherDisplay:10.37,2013-05-12 04:03:00,
2013-05-12 00:04:00,49.8,46.1,29.75,NW,315,5.5,5.5,87,0.00,RA,,0.00,WeatherDisplay:10.37,2013-05-12 04:04:00,
2013-05-12 00:05:00,49.8,46.1,29.75,NW,315,2.5,5.8,87,0.00,RA,,0.00,WeatherDisplay:10.37,2013-05-12 04:05:00,
2013-05-12 00:10:00,49.6,45.9,29.75,West,270,2.8,4.6,87,0.00,CLR,,0.00,WeatherDisplay:10.37,2013-05-12 04:10:00,
2013-05-12 00:15:00,49.3,45.6,29.75,NW,315,7.8,7.8,87,0.00,CLR,,0.00,WeatherDisplay:10.37,2013-05-12 04:15:00,
2013-05-12 00:20:00,49.3,45.6,29.76,WSW,248,5.5,5.5,87,0.00,CLR,,0.00,WeatherDisplay:10.37,2013-05-12 04:20:00,
2013-05-12 00:25:00,49.1,45.1,29.76,WSW,248,3.1,6.9,86,0.00,CLR,,0.00,WeatherDisplay:10.37,2013-05-12 04:25:00,
2013-05-12 00:30:00,48.9,44.9,29.76,WNW,292,4.0,6.9,86,0.00,CLR,,0.00,WeatherDisplay:10.37,2013-05-12 04:30:00,
2013-05-12 00:35:00,48.7,44.7,29.76,WSW,248,8.1,9.2,86,0.00,CLR,,0.00,WeatherDisplay:10.37,2013-05-12 04:35:00,
2013-05-12 00:40:00,48.6,44.6,29.76,West,270,9.6,9.6,86,0.00,CLR,,0.00,WeatherDisplay:10.37,2013-05-12 04:40:00,
2013-05-12 00:45:00,48.4,44.4,29.76,WSW,248,9.0,9.0,86,0.00,CLR,,0.00,WeatherDisplay:10.37,2013-05-12 04:45:00,
2013-05-12 00:50:00,48.4,44.7,29.76,West,270,6.1,6.1,87,0.00,CLR,,0.00,WeatherDisplay:10.37,2013-05-12 04:50:00,
2013-05-12 00:55:00,48.2,44.5,29.76,NNW,338,5.2,9.2,87,0.00,CLR,,0.00,WeatherDisplay:10.37,2013-05-12 04:55:00,
2013-05-12 01:00:00,48.2,44.8,29.76,WSW,248,1.8,3.5,88,0.00,CLR,,0.00,WeatherDisplay:10.37,2013-05-12 05:00:00,
2013-05-12 01:05:00,48.0,44.6,29.76,NW,315,6.1,6.1,88,0.00,CLR,,0.00,WeatherDisplay:10.37,2013-05-12 05:05:00,
2013-05-12 01:10:00,47.8,44.5,29.76,West,270,7.0,7.0,88,0.00,CLR,,0.00,WeatherDisplay:10.37,2013-05-12 05:10:00,
2013-05-12 01:15:00,47.8,44.8,29.76,NNW,338,1.8,4.6,89,0.00,CLR,,0.00,WeatherDisplay:10.37,2013-05-12 05:15:00,
2013-05-12 01:20:00,47.8,44.8,29.76,West,270,4.6,8.1,89,0.00,CLR,,0.00,WeatherDisplay:10.37,2013-05-12 05:20:00,
2013-05-12 01:25:00,47.8,44.8,29.76,West,270,4.3,4.3,89,0.00,CLR,,0.00,WeatherDisplay:10.37,2013-05-12 05:25:00,
2013-05-12 01:30:00,48.0,44.9,29.76,NNW,338,2.5,2.5,89,0.00,CLR,,0.00,WeatherDisplay:10.37,2013-05-12 05:30:00,
2013-05-12 01:35:00,48.0,44.9,29.76,WNW,292,5.2,5.2,89,0.00,CLR,,0.00,WeatherDisplay:10.37,2013-05-12 05:35:00,
2013-05-12 01:40:00,48.2,45.1,29.76,WSW,248,1.8,5.8,89,0.00,CLR,,0.00,WeatherDisplay:10.37,2013-05-12 05:40:00,
2013-05-12 01:45:00,48.2,45.1,29.76,West,270,0.6,3.5,89,0.00,CLR,,0.00,WeatherDisplay:10.37,2013-05-12 05:45:00,
2013-05-12 01:50:00,48.4,45.3,29.76,West,270,3.1,10.4,89,0.00,CLR,,0.00,WeatherDisplay:10.37,2013-05-12 05:50:00,
2013-05-12 01:55:00,48.4,45.3,29.75,West,270,4.0,4.6,89,0.00,CLR,,0.00,WeatherDisplay:10.37,2013-05-12 05:55:00,
2013-05-12 02:00:00,48.6,45.5,29.75,WNW,292,4.6,6.9,89,0.00,CLR,,0.00,WeatherDisplay:10.37,2013-05-12 06:00:00,
2013-05-12 02:05:00,48.6,45.2,29.75,WSW,248,2.5,2.5,88,0.00,CLR,,0.00,WeatherDisplay:10.37,2013-05-12 06:05:00,
2013-05-12 02:10:00,48.6,45.2,29.75,WSW,248,3.1,5.8,88,0.00,CLR,,0.00,WeatherDisplay:10.37,2013-05-12 06:10:00,
2013-05-12 02:15:00,48.6,45.2,29.75,WNW,292,1.5,1.5,88,0.00,CLR,,0.00,WeatherDisplay:10.37,2013-05-12 06:15:00,
2013-05-12 02:20:00,48.6,45.2,29.74,West,270,4.9,5.8,88,0.00,CLR,,0.00,WeatherDisplay:10.37,2013-05-12 06:20:00,
2013-05-12 02:25:00,48.7,45.3,29.74,West,270,9.6,9.6,88,0.00,CLR,,0.00,WeatherDisplay:10.37,2013-05-12 06:25:00,
2013-05-12 02:30:00,48.7,45.3,29.74,WSW,248,4.3,6.9,88,0.00,CLR,,0.00,WeatherDisplay:10.37,2013-05-12 06:30:00,
2013-05-12 02:35:00,48.9,45.2,29.74,West,270,6.4,9.2,87,0.00,CLR,,0.00,WeatherDisplay:10.37,2013-05-12 06:35:00,
2013-05-12 02:40:00,48.9,45.2,29.74,WSW,248,9.9,9.9,87,0.00,CLR,,0.00,WeatherDisplay:10.37,2013-05-12 06:40:00,
2013-05-12 02:45:00,48.9,45.2,29.74,SW,225,8.1,10.4,87,0.00,CLR,,0.00,WeatherDisplay:10.37,2013-05-12 06:45:00,
2013-05-12 02:50:00,48.9,45.2,29.74,WSW,248,10.8,11.5,87,0.00,CLR,,0.00,WeatherDisplay:10.37,2013-05-12 06:50:00,
2013-05-12 02:55:00,48.7,45.3,29.74,WSW,248,8.4,10.4,88,0.00,CLR,,0.00,WeatherDisplay:10.37,2013-05-12 06:55:00,
2013-05-12 03:00:00,48.6,45.2,29.74,WSW,248,5.5,8.1,88,0.00,CLR,,0.00,WeatherDisplay:10.37,2013-05-12 07:00:00,
2013-05-12 03:05:00,48.4,45.3,29.74,West,270,7.0,12.7,89,0.00,CLR,,0.00,WeatherDisplay:10.37,2013-05-12 07:05:00,
2013-05-12 03:10:00,48.0,45.5,29.74,West,270,7.6,7.6,91,0.00,CLR,,0.00,WeatherDisplay:10.37,2013-05-12 07:10:00,
2013-05-12 03:15:00,47.8,45.3,29.73,WSW,248,4.9,11.5,91,0.00,CLR,,0.00,WeatherDisplay:10.37,2013-05-12 07:15:00,
2013-05-12 03:20:00,47.7,45.5,29.73,WNW,292,6.1,6.1,92,0.00,CLR,,0.00,WeatherDisplay:10.37,2013-05-12 07:20:00,
2013-05-12 03:25:00,47.5,45.6,29.74,WNW,292,7.8,7.8,93,0.00,CLR,,0.00,WeatherDisplay:10.37,2013-05-12 07:25:00,
2013-05-12 03:30:00,46.0,42.7,29.75,NW,315,16.9,25.3,88,0.00,CLR,,0.00,WeatherDisplay:10.37,2013-05-12 07:30:00,
2013-05-12 03:35:00,45.0,41.3,29.75,NW,315,12.6,12.6,87,0.00,CLR,,0.00,WeatherDisplay:10.37,2013-05-12 07:35:00,
2013-05-12 03:40:00,44.4,40.8,29.76,NNW,338,6.1,8.1,87,0.00,CLR,,0.00,WeatherDisplay:10.37,2013-05-12 07:40:00,
2013-05-12 03:45:00,44.1,40.4,29.77,NW,315,9.3,9.3,87,0.00,CLR,,0.00,WeatherDisplay:10.37,2013-05-12 07:45:00,
2013-05-12 03:50:00,43.9,40.3,29.76,NW,315,8.4,11.5,87,0.00,CLR,,0.00,WeatherDisplay:10.37,2013-05-12 07:50:00,
2013-05-12 03:55:00,43.7,40.4,29.77,WSW,248,6.4,6.4,88,0.00,CLR,,0.00,WeatherDisplay:10.37,2013-05-12 07:55:00,
2013-05-12 04:00:00,43.5,40.2,29.77,North,0,5.5,5.8,88,0.00,CLR,,0.00,WeatherDisplay:10.37,2013-05-12 08:00:00,
2013-05-12 04:05:00,43.3,40.0,29.77,North,0,8.4,10.4,88,0.00,CLR,,0.00,WeatherDisplay:10.37,2013-05-12 08:05:00,
2013-05-12 04:10:00,43.2,39.6,29.77,North,0,4.3,13.8,87,0.00,CLR,,0.00,WeatherDisplay:10.37,2013-05-12 08:10:00,
2013-05-12 04:15:00,43.0,39.4,29.77,NW,315,10.2,10.2,87,0.00,CLR,,0.00,WeatherDisplay:10.37,2013-05-12 08:15:00,
2013-05-12 04:20:00,42.8,39.2,29.77,ESE,112,5.8,8.1,87,0.00,CLR,,0.00,WeatherDisplay:10.37,2013-05-12 08:20:00,
2013-05-12 04:25:00,42.8,39.2,29.77,WNW,292,8.4,8.4,87,0.00,CLR,,0.00,WeatherDisplay:10.37,2013-05-12 08:25:00,
2013-05-12 04:30:00,42.6,39.3,29.77,NW,315,2.5,10.4,88,0.00,CLR,,0.00,WeatherDisplay:10.37,2013-05-12 08:30:00,
2013-05-12 04:35:00,42.6,39.3,29.77,NW,315,1.5,1.5,88,0.00,CLR,,0.00,WeatherDisplay:10.37,2013-05-12 08:35:00,
2013-05-12 04:40:00,42.6,39.6,29.77,WNW,292,7.0,7.0,89,0.00,CLR,,0.00,WeatherDisplay:10.37,2013-05-12 08:40:00,
2013-05-12 04:45:00,42.4,39.1,29.77,NW,315,3.1,4.6,88,0.00,CLR,,0.00,WeatherDisplay:10.37,2013-05-12 08:45:00,
2013-05-12 04:50:00,42.3,39.0,29.77,NNW,338,6.7,8.1,88,0.00,CLR,,0.00,WeatherDisplay:10.37,2013-05-12 08:50:00,
2013-05-12 04:55:00,42.1,38.8,29.77,WNW,292,11.7,11.7,88,0.00,CLR,,0.00,WeatherDisplay:10.37,2013-05-12 08:55:00,
2013-05-12 05:00:00,42.1,38.8,29.77,WNW,292,5.2,5.2,88,0.00,CLR,,0.00,WeatherDisplay:10.37,2013-05-12 09:00:00,
2013-05-12 05:05:00,42.1,38.8,29.77,WSW,248,4.3,5.8,88,0.00,CLR,,0.00,WeatherDisplay:10.37,2013-05-12 09:05:00,
2013-05-12 05:10:00,41.9,38.3,29.77,WNW,292,2.4,10.4,87,0.00,CLR,,0.00,WeatherDisplay:10.37,2013-05-12 09:10:00,
2013-05-12 05:15:00,41.9,38.3,29.76,North,0,3.7,4.6,87,0.00,CLR,,0.00,WeatherDisplay:10.37,2013-05-12 09:15:00,
2013-05-12 05:20:00,41.9,38.3,29.77,NW,315,4.9,6.9,87,0.00,CLR,,0.00,WeatherDisplay:10.37,2013-05-12 09:20:00,
2013-05-12 05:25:00,41.7,38.1,29.77,West,270,4.0,8.1,87,0.00,CLR,,0.00,WeatherDisplay:10.37,2013-05-12 09:25:00,
2013-05-12 05:30:00,41.7,38.1,29.78,NW,315,8.4,8.4,87,0.00,CLR,,0.00,WeatherDisplay:10.37,2013-05-12 09:30:00,
2013-05-12 05:35:00,41.7,38.1,29.78,NW,315,1.2,5.8,87,0.00,CLR,,0.00,WeatherDisplay:10.37,2013-05-12 09:35:00,
2013-05-12 05:40:00,41.7,38.4,29.77,NNW,338,4.3,6.9,88,0.00,CLR,,0.00,WeatherDisplay:10.37,2013-05-12 09:40:00,
2013-05-12 05:45:00,41.5,38.0,29.77,NW,315,2.5,9.2,87,0.00,CLR,,0.00,WeatherDisplay:10.37,2013-05-12 09:45:00,
2013-05-12 05:50:00,41.5,38.0,29.77,NNW,338,5.2,9.2,87,0.00,CLR,,0.00,WeatherDisplay:10.37,2013-05-12 09:50:00,
2013-05-12 05:55:00,41.4,37.8,29.77,NNW,338,5.5,5.8,87,0.00,CLR,,0.00,WeatherDisplay:10.37,2013-05-12 09:55:00,
2013-05-12 06:00:00,41.4,37.5,29.77,NW,315,5.2,5.2,86,0.00,CLR,,0.00,WeatherDisplay:10.37,2013-05-12 10:00:00,
2013-05-12 06:05:00,41.2,36.7,29.78,West,270,11.7,11.7,84,0.00,CLR,,0.00,WeatherDisplay:10.37,2013-05-12 10:05:00,
2013-05-12 06:10:00,41.0,36.5,29.78,NW,315,9.0,9.0,84,0.00,CLR,,0.00,WeatherDisplay:10.37,2013-05-12 10:10:00,
2013-05-12 06:15:00,40.6,35.6,29.79,NNW,338,9.9,9.9,82,0.00,CLR,,0.00,WeatherDisplay:10.37,2013-05-12 10:15:00,
2013-05-12 06:20:00,40.5,35.4,29.79,NW,315,4.6,9.2,82,0.00,CLR,,0.00,WeatherDisplay:10.37,2013-05-12 10:20:00,
2013-05-12 06:25:00,40.3,34.6,29.79,WNW,292,4.6,4.6,80,0.00,CLR,,0.00,WeatherDisplay:10.37,2013-05-12 10:25:00,
2013-05-12 06:30:00,39.9,33.9,29.79,NW,315,10.2,16.1,79,0.00,CLR,,0.00,WeatherDisplay:10.37,2013-05-12 10:30:00,
2013-05-12 06:35:00,39.7,34.1,29.79,NW,315,13.6,13.6,80,0.00,CLR,,0.00,WeatherDisplay:10.37,2013-05-12 10:35:00,
2013-05-12 06:40:00,39.6,34.2,29.80,NW,315,8.7,10.4,81,0.00,CLR,,0.00,WeatherDisplay:10.37,2013-05-12 10:40:00,
2013-05-12 06:45:00,39.2,34.2,29.80,West,270,5.8,5.8,82,0.00,CLR,,0.00,WeatherDisplay:10.37,2013-05-12 10:45:00,
2013-05-12 06:50:00,39.0,34.0,29.81,WSW,248,5.2,6.9,82,0.00,CLR,,0.00,WeatherDisplay:10.37,2013-05-12 10:50:00,
2013-05-12 06:55:00,38.7,33.6,29.81,WNW,292,3.4,8.1,82,0.00,CLR,,0.00,WeatherDisplay:10.37,2013-05-12 10:55:00,
2013-05-12 07:00:00,38.5,33.8,29.81,NW,315,7.0,9.2,83,0.00,CLR,,0.00,WeatherDisplay:10.37,2013-05-12 11:00:00,
2013-05-12 07:05:00,38.1,33.4,29.82,WNW,292,12.3,12.3,83,0.00,CLR,,0.00,WeatherDisplay:10.37,2013-05-12 11:05:00,
2013-05-12 07:10:00,37.9,33.2,29.82,NNW,338,10.2,10.2,83,0.00,CLR,,0.00,WeatherDisplay:10.37,2013-05-12 11:10:00,
2013-05-12 07:15:00,37.8,33.1,29.82,West,270,7.8,12.7,83,0.00,CLR,,0.00,WeatherDisplay:10.37,2013-05-12 11:15:00,
2013-05-12 07:20:00,37.6,32.6,29.82,WNW,292,3.4,6.9,82,0.00,CLR,,0.00,WeatherDisplay:10.37,2013-05-12 11:20:00,
2013-05-12 07:25:00,37.4,32.1,29.82,NNW,338,2.1,6.9,81,0.00,CLR,,0.00,WeatherDisplay:10.37,2013-05-12 11:25:00,
2013-05-12 07:30:00,37.4,31.8,29.82,West,270,5.2,6.9,80,0.00,CLR,,0.00,WeatherDisplay:10.37,2013-05-12 11:30:00,
2013-05-12 07:35:00,37.4,31.8,29.82,NNW,338,8.4,8.4,80,0.00,CLR,,0.00,WeatherDisplay:10.37,2013-05-12 11:35:00,
2013-05-12 07:40:00,37.6,32.0,29.82,WNW,292,3.7,5.8,80,0.00,CLR,,0.00,WeatherDisplay:10.37,2013-05-12 11:40:00,
2013-05-12 07:45:00,37.6,32.0,29.82,West,270,5.5,5.8,80,0.00,CLR,,0.00,WeatherDisplay:10.37,2013-05-12 11:45:00,
2013-05-12 07:50:00,37.8,32.1,29.82,NW,315,8.4,8.4,80,0.00,CLR,,0.00,WeatherDisplay:10.37,2013-05-12 11:50:00,
2013-05-12 07:55:00,37.8,32.1,29.83,NNW,338,2.8,9.2,80,0.00,CLR,,0.00,WeatherDisplay:10.37,2013-05-12 11:55:00,
2013-05-12 08:00:00,37.8,32.1,29.83,NW,315,1.5,2.3,80,0.00,CLR,,0.00,WeatherDisplay:10.37,2013-05-12 12:00:00,
2013-05-12 08:05:00,37.9,32.3,29.82,NW,315,2.1,6.9,80,0.00,CLR,,0.00,WeatherDisplay:10.37,2013-05-12 12:05:00,
2013-05-12 08:10:00,38.5,32.8,29.82,NW,315,5.8,9.2,80,0.00,CLR,,0.00,WeatherDisplay:10.37,2013-05-12 12:10:00,
2013-05-12 08:15:00,38.5,32.5,29.82,NW,315,4.9,4.9,79,0.00,CLR,,0.00,WeatherDisplay:10.37,2013-05-12 12:15:00,
2013-05-12 08:20:00,38.8,32.9,29.83,West,270,5.2,6.9,79,0.00,CLR,,0.00,WeatherDisplay:10.37,2013-05-12 12:20:00,
2013-05-12 08:25:00,39.0,33.1,29.83,West,270,6.7,9.2,79,0.00,CLR,,0.00,WeatherDisplay:10.37,2013-05-12 12:25:00,
2013-05-12 08:30:00,38.7,32.4,29.83,North,0,3.4,10.4,78,0.00,CLR,,0.00,WeatherDisplay:10.37,2013-05-12 12:30:00,
2013-05-12 08:35:00,38.5,31.6,29.83,WSW,248,5.5,8.1,76,0.00,CLR,,0.00,WeatherDisplay:10.37,2013-05-12 12:35:00,
2013-05-12 08:40:00,38.5,31.9,29.83,NW,315,3.4,6.9,77,0.00,CLR,,0.00,WeatherDisplay:10.37,2013-05-12 12:40:00,
2013-05-12 08:45:00,38.5,31.2,29.83,WSW,248,4.6,5.8,75,0.00,CLR,,0.00,WeatherDisplay:10.37,2013-05-12 12:45:00,
2013-05-12 08:50:00,38.8,30.9,29.83,NNW,338,3.7,10.4,73,0.00,CLR,,0.00,WeatherDisplay:10.37,2013-05-12 12:50:00,
2013-05-12 08:55:00,39.2,31.3,29.83,NNW,338,6.1,11.5,73,0.00,CLR,,0.00,WeatherDisplay:10.37,2013-05-12 12:55:00,
2013-05-12 09:00:00,39.4,31.1,29.83,West,270,4.9,10.4,72,0.00,CLR,,0.00,WeatherDisplay:10.37,2013-05-12 13:00:00,
2013-05-12 09:05:00,39.7,31.1,29.84,NW,315,5.2,6.9,71,0.00,CLR,,0.00,WeatherDisplay:10.37,2013-05-12 13:05:00,
2013-05-12 09:10:00,39.9,31.3,29.84,West,270,3.7,8.1,71,0.00,CLR,,0.00,WeatherDisplay:10.37,2013-05-12 13:10:00,
2013-05-12 09:15:00,40.1,30.4,29.84,WSW,248,3.4,9.2,68,0.00,CLR,,0.00,WeatherDisplay:10.37,2013-05-12 13:15:00,
2013-05-12 09:20:00,40.3,31.6,29.84,NNW,338,5.5,9.2,71,0.00,CLR,,0.00,WeatherDisplay:10.37,2013-05-12 13:20:00,
2013-05-12 09:25:00,40.6,30.5,29.83,NNW,338,8.4,11.5,67,0.00,CLR,,0.00,WeatherDisplay:10.37,2013-05-12 13:25:00,
2013-05-12 09:30:00,40.5,31.1,29.83,NW,315,5.8,5.8,69,0.00,CLR,,0.00,WeatherDisplay:10.37,2013-05-12 13:30:00,
2013-05-12 09:35:00,40.6,31.3,29.83,NNW,338,2.8,9.2,69,0.00,CLR,,0.00,WeatherDisplay:10.37,2013-05-12 13:35:00,
2013-05-12 09:40:00,40.6,30.9,29.83,WSW,248,10.8,10.8,68,0.00,CLR,,0.00,WeatherDisplay:10.37,2013-05-12 13:40:00,
2013-05-12 09:45:00,40.5,31.1,29.83,WSW,248,4.3,10.4,69,0.00,CLR,,0.00,WeatherDisplay:10.37,2013-05-12 13:45:00,
2013-05-12 09:50:00,41.2,31.0,29.83,North,0,11.1,13.8,67,0.00,CLR,,0.00,WeatherDisplay:10.37,2013-05-12 13:50:00,
2013-05-12 09:55:00,41.2,31.0,29.83,NW,315,15.1,15.1,67,0.00,CLR,,0.00,WeatherDisplay:10.37,2013-05-12 13:55:00,
2013-05-12 10:00:00,41.2,31.0,29.82,NNW,338,11.1,11.5,67,0.00,CLR,,0.00,WeatherDisplay:10.37,2013-05-12 14:00:00,
2013-05-12 10:05:00,41.5,30.3,29.82,NNE,22,8.1,8.1,64,0.00,CLR,,0.00,WeatherDisplay:10.37,2013-05-12 14:05:00,
2013-05-12 10:10:00,41.7,31.2,29.82,NW,315,8.1,8.1,66,0.00,CLR,,0.00,WeatherDisplay:10.37,2013-05-12 14:10:00,
2013-05-12 10:15:00,42.1,31.9,29.82,NW,315,7.8,8.1,67,0.00,CLR,,0.00,WeatherDisplay:10.37,2013-05-12 14:15:00,
2013-05-12 10:20:00,42.1,31.2,29.82,WSW,248,9.3,9.3,65,0.00,CLR,,0.00,WeatherDisplay:10.37,2013-05-12 14:20:00,
2013-05-12 10:25:00,42.3,30.6,29.82,ENE,68,13.6,13.6,63,0.00,CLR,,0.00,WeatherDisplay:10.37,2013-05-12 14:25:00,
2013-05-12 10:30:00,42.4,31.1,29.82,West,270,9.3,9.3,64,0.00,CLR,,0.00,WeatherDisplay:10.37,2013-05-12 14:30:00,
2013-05-12 10:35:00,42.1,30.8,29.82,NW,315,15.1,15.1,64,0.00,CLR,,0.00,WeatherDisplay:10.37,2013-05-12 14:35:00,
2013-05-12 10:40:00,42.3,30.6,29.82,WSW,248,7.3,12.7,63,0.00,CLR,,0.00,WeatherDisplay:10.37,2013-05-12 14:40:00,
2013-05-12 10:45:00,43.2,31.4,29.82,SW,225,5.2,15.0,63,0.00,CLR,,0.00,WeatherDisplay:10.37,2013-05-12 14:45:00,
2013-05-12 10:50:00,43.2,31.4,29.82,WNW,292,5.8,6.9,63,0.00,CLR,,0.00,WeatherDisplay:10.37,2013-05-12 14:50:00,
2013-05-12 10:55:00,43.9,33.3,29.82,West,270,12.0,12.0,66,0.00,CLR,,0.00,WeatherDisplay:10.37,2013-05-12 14:55:00,
2013-05-12 11:00:00,43.9,30.9,29.82,WSW,248,11.4,11.5,60,0.00,CLR,,0.00,WeatherDisplay:10.37,2013-05-12 15:00:00,
2013-05-12 11:05:00,43.5,30.5,29.82,WSW,248,8.1,16.1,60,0.00,CLR,,0.00,WeatherDisplay:10.37,2013-05-12 15:05:00,
2013-05-12 11:10:00,44.1,31.5,29.82,NW,315,6.7,10.4,61,0.00,CLR,,0.00,WeatherDisplay:10.37,2013-05-12 15:10:00,
2013-05-12 11:15:00,44.4,30.1,29.82,North,0,11.4,11.4,57,0.00,CLR,,0.00,WeatherDisplay:10.37,2013-05-12 15:15:00,
2013-05-12 11:20:00,44.2,30.4,29.82,NNW,338,3.4,16.1,58,0.00,CLR,,0.00,WeatherDisplay:10.37,2013-05-12 15:20:00,
2013-05-12 11:25:00,44.2,30.4,29.82,NW,315,5.2,9.2,58,0.00,CLR,,0.00,WeatherDisplay:10.37,2013-05-12 15:25:00,
2013-05-12 11:30:00,44.8,30.5,29.83,West,270,13.6,13.6,57,0.00,CLR,,0.00,WeatherDisplay:10.37,2013-05-12 15:30:00,
2013-05-12 11:35:00,45.1,29.9,29.82,WSW,248,10.5,10.5,55,0.00,CLR,,0.00,WeatherDisplay:10.37,2013-05-12 15:35:00,
2013-05-12 11:40:00,44.4,28.8,29.82,NNW,338,11.4,11.4,54,0.00,CLR,,0.00,WeatherDisplay:10.37,2013-05-12 15:40:00,
2013-05-12 11:45:00,45.0,29.8,29.83,West,270,13.6,13.6,55,0.00,CLR,,0.00,WeatherDisplay:10.37,2013-05-12 15:45:00,
2013-05-12 11:50:00,45.3,29.6,29.83,WSW,248,13.3,13.3,54,0.00,CLR,,0.00,WeatherDisplay:10.37,2013-05-12 15:50:00,
2013-05-12 11:55:00,45.3,29.2,29.83,West,270,8.4,8.4,53,0.00,CLR,,0.00,WeatherDisplay:10.37,2013-05-12 15:55:00,
2013-05-12 12:00:00,45.0,29.3,29.83,West,270,16.0,16.1,54,0.00,CLR,,0.00,WeatherDisplay:10.37,2013-05-12 16:00:00,
2013-05-12 12:05:00,45.1,29.9,29.83,NNW,338,7.6,17.3,55,0.00,CLR,,0.00,WeatherDisplay:10.37,2013-05-12 16:05:00,
2013-05-12 12:10:00,45.7,29.0,29.83,WSW,248,10.5,11.5,52,0.00,CLR,,0.00,WeatherDisplay:10.37,2013-05-12 16:10:00,
2013-05-12 12:15:00,45.1,30.8,29.83,NW,315,8.4,12.7,57,0.00,CLR,,0.00,WeatherDisplay:10.37,2013-05-12 16:15:00,
2013-05-12 12:20:00,45.3,27.8,29.83,WSW,248,23.8,23.8,50,0.00,CLR,,0.00,WeatherDisplay:10.37,2013-05-12 16:20:00,
2013-05-12 12:25:00,45.3,28.7,29.83,NW,315,11.1,12.7,52,0.00,CLR,,0.00,WeatherDisplay:10.37,2013-05-12 16:25:00,
2013-05-12 12:30:00,45.1,28.5,29.83,West,270,13.0,15.0,52,0.00,CLR,,0.00,WeatherDisplay:10.37,2013-05-12 16:30:00,
2013-05-12 12:35:00,45.0,28.4,29.83,NW,315,9.6,11.5,52,0.00,CLR,,0.00,WeatherDisplay:10.37,2013-05-12 16:35:00,
2013-05-12 12:40:00,45.0,28.8,29.83,NW,315,14.2,16.1,53,0.00,CLR,,0.00,WeatherDisplay:10.37,2013-05-12 16:40:00,
2013-05-12 12:45:00,45.1,29.5,29.83,WSW,248,11.1,12.7,54,0.00,CLR,,0.00,WeatherDisplay:10.37,2013-05-12 16:45:00,
2013-05-12 12:50:00,45.3,29.2,29.83,West,270,7.3,20.7,53,0.00,CLR,,0.00,WeatherDisplay:10.37,2013-05-12 16:50:00,
2013-05-12 12:55:00,45.3,27.3,29.83,NNW,338,11.1,11.1,49,0.00,CLR,,0.00,WeatherDisplay:10.37,2013-05-12 16:55:00,
2013-05-12 13:00:00,45.1,28.5,29.83,West,270,12.9,12.9,52,0.00,CLR,,0.00,WeatherDisplay:10.37,2013-05-12 17:00:00,
2013-05-12 13:05:00,45.3,28.2,29.84,West,270,6.4,16.1,51,0.00,CLR,,0.00,WeatherDisplay:10.37,2013-05-12 17:05:00,
2013-05-12 13:10:00,45.7,28.1,29.84,West,270,11.4,15.0,50,0.00,CLR,,0.00,WeatherDisplay:10.37,2013-05-12 17:10:00,
2013-05-12 13:15:00,46.0,29.4,29.84,WSW,248,14.2,14.2,52,0.00,CLR,,0.00,WeatherDisplay:10.37,2013-05-12 17:15:00,
2013-05-12 13:20:00,45.9,27.8,29.84,WSW,248,9.9,9.9,49,0.00,CLR,,0.00,WeatherDisplay:10.37,2013-05-12 17:20:00,
2013-05-12 13:25:00,45.3,27.8,29.84,WNW,292,9.0,13.8,50,0.00,CLR,,0.00,WeatherDisplay:10.37,2013-05-12 17:25:00,
2013-05-12 13:30:00,45.5,27.9,29.84,NW,315,9.6,18.4,50,0.00,CLR,,0.00,WeatherDisplay:10.37,2013-05-12 17:30:00,
2013-05-12 13:35:00,45.9,29.2,29.84,WSW,248,6.4,6.9,52,0.00,CLR,,0.00,WeatherDisplay:10.37,2013-05-12 17:35:00,
2013-05-12 13:40:00,45.5,28.4,29.84,WSW,248,7.8,18.4,51,0.00,CLR,,0.00,WeatherDisplay:10.37,2013-05-12 17:40:00,
2013-05-12 13:45:00,46.4,28.8,29.84,West,270,14.5,14.5,50,0.00,CLR,,0.00,WeatherDisplay:10.37,2013-05-12 17:45:00,
2013-05-12 13:50:00,46.4,28.8,29.84,NW,315,10.5,17.3,50,0.00,CLR,,0.00,WeatherDisplay:10.37,2013-05-12 17:50:00,
2013-05-12 13:55:00,46.4,28.8,29.84,West,270,18.1,18.1,50,0.00,CLR,,0.00,WeatherDisplay:10.37,2013-05-12 17:55:00,
2013-05-12 14:00:00,46.4,28.8,29.84,West,270,9.3,10.4,50,0.00,CLR,,0.00,WeatherDisplay:10.37,2013-05-12 18:00:00,
2013-05-12 14:05:00,46.2,30.9,29.84,West,270,3.7,8.1,55,0.00,CLR,,0.00,WeatherDisplay:10.37,2013-05-12 18:05:00,
2013-05-12 14:10:00,47.3,30.5,29.84,WSW,248,10.2,10.2,52,0.00,CLR,,0.00,WeatherDisplay:10.37,2013-05-12 18:10:00,
2013-05-12 14:15:00,46.8,27.6,29.84,WSW,248,10.8,16.1,47,0.00,CLR,,0.00,WeatherDisplay:10.37,2013-05-12 18:15:00,
2013-05-12 14:20:00,46.0,28.4,29.84,North,0,12.0,12.7,50,0.00,CLR,,0.00,WeatherDisplay:10.37,2013-05-12 18:20:00,
2013-05-12 14:25:00,46.0,29.8,29.84,SW,225,5.2,5.8,53,0.00,CLR,,0.00,WeatherDisplay:10.37,2013-05-12 18:25:00,
2013-05-12 14:30:00,46.4,30.2,29.84,WNW,292,9.3,9.3,53,0.00,CLR,,0.00,WeatherDisplay:10.37,2013-05-12 18:30:00,
2013-05-12 14:35:00,46.6,29.9,29.84,NW,315,16.3,16.3,52,0.00,CLR,,0.00,WeatherDisplay:10.37,2013-05-12 18:35:00,
2013-05-12 14:40:00,47.1,30.9,29.84,SW,225,7.8,11.5,53,0.00,CLR,,0.00,WeatherDisplay:10.37,2013-05-12 18:40:00,
2013-05-12 14:45:00,47.5,29.7,29.84,North,0,9.9,12.7,50,0.00,CLR,,0.00,WeatherDisplay:10.37,2013-05-12 18:45:00,
2013-05-12 14:50:00,47.1,29.9,29.84,WSW,248,9.0,13.8,51,0.00,CLR,,0.00,WeatherDisplay:10.37,2013-05-12 18:50:00,
2013-05-12 14:55:00,47.1,29.4,29.84,WSW,248,12.9,13.8,50,0.00,CLR,,0.00,WeatherDisplay:10.37,2013-05-12 18:55:00,
2013-05-12 15:00:00,48.0,31.2,29.84,WSW,248,7.0,7.0,52,0.00,CLR,,0.00,WeatherDisplay:10.37,2013-05-12 19:00:00,
2013-05-12 15:05:00,47.8,30.1,29.84,NNW,338,11.7,12.7,50,0.00,CLR,,0.00,WeatherDisplay:10.37,2013-05-12 19:05:00,
2013-05-12 15:10:00,46.9,29.7,29.84,West,270,9.0,17.3,51,0.00,CLR,,0.00,WeatherDisplay:10.37,2013-05-12 19:10:00,
2013-05-12 15:15:00,46.0,29.4,29.85,WSW,248,9.6,16.1,52,0.00,CLR,,0.00,WeatherDisplay:10.37,2013-05-12 19:15:00,
2013-05-12 15:20:00,46.0,29.8,29.84,West,270,7.0,9.2,53,0.00,CLR,,0.00,WeatherDisplay:10.37,2013-05-12 19:20:00,
2013-05-12 15:25:00,46.0,30.3,29.85,WNW,292,12.9,13.8,54,0.00,CLR,,0.00,WeatherDisplay:10.37,2013-05-12 19:25:00,
2013-05-12 15:30:00,46.9,30.7,29.85,WSW,248,8.1,9.2,53,0.00,CLR,,0.00,WeatherDisplay:10.37,2013-05-12 19:30:00,
2013-05-12 15:35:00,47.7,31.4,29.84,WSW,248,12.6,12.7,53,0.00,CLR,,0.00,WeatherDisplay:10.37,2013-05-12 19:35:00,
2013-05-12 15:40:00,47.5,28.2,29.84,WSW,248,10.2,16.1,47,0.00,CLR,,0.00,WeatherDisplay:10.37,2013-05-12 19:40:00,
2013-05-12 15:45:00,46.4,30.2,29.84,West,270,3.7,5.8,53,0.00,CLR,,0.00,WeatherDisplay:10.37,2013-05-12 19:45:00,
2013-05-12 15:50:00,45.9,31.0,29.85,WSW,248,12.9,12.9,56,0.00,CLR,,0.00,WeatherDisplay:10.37,2013-05-12 19:50:00,
2013-05-12 15:55:00,45.0,31.1,29.85,NNW,338,9.6,11.5,58,0.00,CLR,,0.00,WeatherDisplay:10.37,2013-05-12 19:55:00,
2013-05-12 16:00:00,46.6,33.0,29.85,WNW,292,10.2,10.4,59,0.00,CLR,,0.00,WeatherDisplay:10.37,2013-05-12 20:00:00,
2013-05-12 16:05:00,48.4,32.5,29.84,West,270,9.9,10.4,54,0.00,CLR,,0.00,WeatherDisplay:10.37,2013-05-12 20:05:00,
2013-05-12 16:10:00,47.3,30.5,29.84,NNW,338,9.0,15.0,52,0.00,CLR,,0.00,WeatherDisplay:10.37,2013-05-12 20:10:00,
2013-05-12 16:15:00,46.6,30.3,29.84,West,270,12.6,12.6,53,0.00,CLR,,0.00,WeatherDisplay:10.37,2013-05-12 20:15:00,
2013-05-12 16:20:00,46.4,29.7,29.85,West,270,11.4,11.5,52,0.00,CLR,,0.00,WeatherDisplay:10.37,2013-05-12 20:20:00,
2013-05-12 16:25:00,47.5,30.7,29.84,NW,315,7.3,8.1,52,0.00,CLR,,0.00,WeatherDisplay:10.37,2013-05-12 20:25:00,
2013-05-12 16:30:00,48.7,30.4,29.84,NNW,338,5.2,20.7,49,0.00,CLR,,0.00,WeatherDisplay:10.37,2013-05-12 20:30:00,
2013-05-12 16:35:00,47.5,30.2,29.84,West,270,11.1,11.1,51,0.00,CLR,,0.00,WeatherDisplay:10.37,2013-05-12 20:35:00,
2013-05-12 16:40:00,47.5,30.2,29.84,WNW,292,8.7,8.7,51,0.00,CLR,,0.00,WeatherDisplay:10.37,2013-05-12 20:40:00,
2013-05-12 16:45:00,49.6,30.7,29.85,WSW,248,6.1,15.0,48,0.00,CLR,,0.00,WeatherDisplay:10.37,2013-05-12 20:45:00,
2013-05-12 16:50:00,50.7,29.6,29.84,WNW,292,6.1,18.4,44,0.00,CLR,,0.00,WeatherDisplay:10.37,2013-05-12 20:50:00,
2013-05-12 16:55:00,48.9,27.4,29.85,WNW,292,4.3,8.1,43,0.00,CLR,,0.00,WeatherDisplay:10.37,2013-05-12 20:55:00,
2013-05-12 17:00:00,48.2,28.4,29.85,WNW,292,5.2,5.8,46,0.00,CLR,,0.00,WeatherDisplay:10.37,2013-05-12 21:00:00,
2013-05-12 17:05:00,49.1,29.2,29.85,NNW,338,3.1,11.5,46,0.00,CLR,,0.00,WeatherDisplay:10.37,2013-05-12 21:05:00,
2013-05-12 17:10:00,49.5,28.4,29.85,NNW,338,9.0,17.3,44,0.00,CLR,,0.00,WeatherDisplay:10.37,2013-05-12 21:10:00,
2013-05-12 17:15:00,48.6,27.6,29.85,WSW,248,11.1,11.1,44,0.00,CLR,,0.00,WeatherDisplay:10.37,2013-05-12 21:15:00,
2013-05-12 17:20:00,47.3,26.5,29.85,WSW,248,22.7,22.7,44,0.00,CLR,,0.00,WeatherDisplay:10.37,2013-05-12 21:20:00,
2013-05-12 17:25:00,48.2,27.3,29.85,NNW,338,13.0,13.0,44,0.00,CLR,,0.00,WeatherDisplay:10.37,2013-05-12 21:25:00,
2013-05-12 17:30:00,48.6,27.6,29.85,NW,315,15.1,15.1,44,0.00,CLR,,0.00,WeatherDisplay:10.37,2013-05-12 21:30:00,
2013-05-12 17:35:00,47.7,26.8,29.85,SSW,202,9.9,18.4,44,0.00,CLR,,0.00,WeatherDisplay:10.37,2013-05-12 21:35:00,
2013-05-12 17:40:00,48.0,27.1,29.85,NW,315,9.9,15.0,44,0.00,CLR,,0.00,WeatherDisplay:10.37,2013-05-12 21:40:00,
2013-05-12 17:45:00,48.0,27.1,29.86,WNW,292,9.0,12.7,44,0.00,CLR,,0.00,WeatherDisplay:10.37,2013-05-12 21:45:00,
2013-05-12 17:50:00,47.3,26.5,29.86,NW,315,10.5,12.7,44,0.00,CLR,,0.00,WeatherDisplay:10.37,2013-05-12 21:50:00,
2013-05-12 17:55:00,47.1,26.8,29.86,West,270,12.3,12.3,45,0.00,CLR,,0.00,WeatherDisplay:10.37,2013-05-12 21:55:00,
2013-05-12 18:00:00,47.3,27.5,29.86,NNW,338,10.2,10.4,46,0.00,CLR,,0.00,WeatherDisplay:10.37,2013-05-12 22:00:00,
2013-05-12 18:05:00,49.1,28.7,29.86,WSW,248,7.0,11.5,45,0.00,CLR,,0.00,WeatherDisplay:10.37,2013-05-12 22:05:00,
2013-05-12 18:10:00,48.6,28.2,29.86,SW,225,11.1,11.1,45,0.00,CLR,,0.00,WeatherDisplay:10.37,2013-05-12 22:10:00,
2013-05-12 18:15:00,48.2,27.3,29.86,West,270,10.8,13.8,44,0.00,CLR,,0.00,WeatherDisplay:10.37,2013-05-12 22:15:00,
2013-05-12 18:20:00,47.8,27.5,29.86,NW,315,9.0,17.3,45,0.00,CLR,,0.00,WeatherDisplay:10.37,2013-05-12 22:20:00,
2013-05-12 18:25:00,48.6,27.1,29.86,North,0,6.1,10.4,43,0.00,CLR,,0.00,WeatherDisplay:10.37,2013-05-12 22:25:00,
2013-05-12 18:30:00,48.4,26.9,29.86,NW,315,7.8,15.0,43,0.00,CLR,,0.00,WeatherDisplay:10.37,2013-05-12 22:30:00,
2013-05-12 18:35:00,48.0,27.1,29.86,NW,315,8.7,9.2,44,0.00,CLR,,0.00,WeatherDisplay:10.37,2013-05-12 22:35:00,
2013-05-12 18:40:00,48.9,27.4,29.85,WNW,292,5.8,12.7,43,0.00,CLR,,0.00,WeatherDisplay:10.37,2013-05-12 22:40:00,
2013-05-12 18:45:00,49.1,27.0,29.85,NNW,338,12.3,15.0,42,0.00,CLR,,0.00,WeatherDisplay:10.37,2013-05-12 22:45:00,
2013-05-12 18:50:00,49.1,27.0,29.86,North,0,6.7,8.1,42,0.00,CLR,,0.00,WeatherDisplay:10.37,2013-05-12 22:50:00,
2013-05-12 18:55:00,47.7,26.8,29.86,West,270,9.3,10.4,44,0.00,CLR,,0.00,WeatherDisplay:10.37,2013-05-12 22:55:00,
2013-05-12 19:00:00,46.4,27.2,29.87,NNW,338,2.8,9.2,47,0.00,CLR,,0.00,WeatherDisplay:10.37,2013-05-12 23:00:00,
2013-05-12 19:05:00,45.7,26.6,29.87,NW,315,9.0,9.0,47,0.00,CLR,,0.00,WeatherDisplay:10.37,2013-05-12 23:05:00,
2013-05-12 19:10:00,45.7,27.1,29.87,WSW,248,4.3,10.4,48,0.00,CLR,,0.00,WeatherDisplay:10.37,2013-05-12 23:10:00,
2013-05-12 19:15:00,45.7,26.6,29.87,NW,315,3.1,15.0,47,0.00,CLR,,0.00,WeatherDisplay:10.37,2013-05-12 23:15:00,
2013-05-12 19:20:00,46.8,27.6,29.87,West,270,11.1,11.5,47,0.00,CLR,,0.00,WeatherDisplay:10.37,2013-05-12 23:20:00,
2013-05-12 19:25:00,46.6,27.4,29.88,NNW,338,5.5,12.7,47,0.00,CLR,,0.00,WeatherDisplay:10.37,2013-05-12 23:25:00,
2013-05-12 19:30:00,45.5,26.9,29.88,WSW,248,13.6,13.6,48,0.00,CLR,,0.00,WeatherDisplay:10.37,2013-05-12 23:30:00,
2013-05-12 19:35:00,44.8,27.7,29.89,NNE,22,6.4,6.9,51,0.00,CLR,,0.00,WeatherDisplay:10.37,2013-05-12 23:35:00,
2013-05-12 19:40:00,44.6,27.6,29.89,WSW,248,5.2,9.2,51,0.00,CLR,,0.00,WeatherDisplay:10.37,2013-05-12 23:40:00,
2013-05-12 19:45:00,45.0,27.9,29.89,NNW,338,12.0,12.0,51,0.00,CLR,,0.00,WeatherDisplay:10.37,2013-05-12 23:45:00,
2013-05-12 19:50:00,45.0,27.9,29.89,NW,315,8.4,9.2,51,0.00,CLR,,0.00,WeatherDisplay:10.37,2013-05-12 23:50:00,
2013-05-12 19:55:00,44.6,28.0,29.89,NW,315,10.8,10.8,52,0.00,CLR,,0.00,WeatherDisplay:10.37,2013-05-12 23:55:00,
2013-05-12 20:00:00,44.2,28.2,29.89,NW,315,7.0,7.0,53,0.00,CLR,,0.00,WeatherDisplay:10.37,2013-05-13 00:00:00,
2013-05-12 20:05:00,43.9,27.8,29.89,NW,315,8.1,9.2,53,0.00,CLR,,0.00,WeatherDisplay:10.37,2013-05-13 00:05:00,
2013-05-12 20:10:00,43.5,28.0,29.90,West,270,8.4,9.2,54,0.00,CLR,,0.00,WeatherDisplay:10.37,2013-05-13 00:10:00,
2013-05-12 20:15:00,43.3,27.8,29.90,NW,315,6.4,6.4,54,0.00,CLR,,0.00,WeatherDisplay:10.37,2013-05-13 00:15:00,
2013-05-12 20:20:00,43.2,28.1,29.90,NW,315,2.4,5.8,55,0.00,CLR,,0.00,WeatherDisplay:10.37,2013-05-13 00:20:00,
2013-05-12 20:25:00,42.8,28.2,29.90,West,270,3.1,3.5,56,0.00,CLR,,0.00,WeatherDisplay:10.37,2013-05-13 00:25:00,
2013-05-12 20:30:00,42.8,28.6,29.90,WSW,248,2.1,6.9,57,0.00,CLR,,0.00,WeatherDisplay:10.37,2013-05-13 00:30:00,
2013-05-12 20:35:00,42.4,28.3,29.90,NNW,338,4.3,4.3,57,0.00,CLR,,0.00,WeatherDisplay:10.37,2013-05-13 00:35:00,
2013-05-12 20:40:00,42.3,28.5,29.90,NNW,338,2.5,6.9,58,0.00,CLR,,0.00,WeatherDisplay:10.37,2013-05-13 00:40:00,
2013-05-12 20:45:00,42.1,28.4,29.91,NNW,338,2.8,3.5,58,0.00,CLR,,0.00,WeatherDisplay:10.37,2013-05-13 00:45:00,
2013-05-12 20:50:00,41.9,28.6,29.91,WNW,292,3.7,3.7,59,0.00,CLR,,0.00,WeatherDisplay:10.37,2013-05-13 00:50:00,
2013-05-12 20:55:00,41.9,28.6,29.91,NNE,22,2.5,6.9,59,0.00,CLR,,0.00,WeatherDisplay:10.37,2013-05-13 00:55:00,
2013-05-12 21:00:00,41.7,28.8,29.91,NNW,338,2.4,2.4,60,0.00,CLR,,0.00,WeatherDisplay:10.37,2013-05-13 01:00:00,
2013-05-12 21:05:00,41.5,28.7,29.91,West,270,5.2,5.8,60,0.00,CLR,,0.00,WeatherDisplay:10.37,2013-05-13 01:05:00,
2013-05-12 21:10:00,41.5,28.7,29.91,NNW,338,4.3,6.9,60,0.00,CLR,,0.00,WeatherDisplay:10.37,2013-05-13 01:10:00,
2013-05-12 21:15:00,41.5,28.7,29.91,West,270,1.5,5.8,60,0.00,CLR,,0.00,WeatherDisplay:10.37,2013-05-13 01:15:00,
2013-05-12 21:20:00,41.5,28.7,29.92,West,270,6.1,6.9,60,0.00,CLR,,0.00,WeatherDisplay:10.37,2013-05-13 01:20:00,
2013-05-12 21:25:00,41.7,28.0,29.92,West,270,5.8,12.7,58,0.00,CLR,,0.00,WeatherDisplay:10.37,2013-05-13 01:25:00,
2013-05-12 21:30:00,41.9,28.6,29.92,WSW,248,2.4,4.6,59,0.00,CLR,,0.00,WeatherDisplay:10.37,2013-05-13 01:30:00,
2013-05-12 21:35:00,41.7,28.4,29.92,NW,315,2.1,8.1,59,0.00,CLR,,0.00,WeatherDisplay:10.37,2013-05-13 01:35:00,
2013-05-12 21:40:00,41.5,28.3,29.92,WNW,292,4.3,4.6,59,0.00,CLR,,0.00,WeatherDisplay:10.37,2013-05-13 01:40:00,
2013-05-12 21:45:00,41.4,28.5,29.92,WNW,292,3.7,4.6,60,0.00,CLR,,0.00,WeatherDisplay:10.37,2013-05-13 01:45:00,
2013-05-12 21:50:00,41.4,28.9,29.92,NNW,338,1.5,3.5,61,0.00,CLR,,0.00,WeatherDisplay:10.37,2013-05-13 01:50:00,
2013-05-12 21:55:00,41.4,28.5,29.93,West,270,8.1,8.1,60,0.00,CLR,,0.00,WeatherDisplay:10.37,2013-05-13 01:55:00,
2013-05-12 22:00:00,41.4,28.9,29.93,WNW,292,4.6,4.6,61,0.00,CLR,,0.00,WeatherDisplay:10.37,2013-05-13 02:00:00,
2013-05-12 22:05:00,41.4,28.9,29.93,West,270,3.4,5.8,61,0.00,CLR,,0.00,WeatherDisplay:10.37,2013-05-13 02:05:00,
2013-05-12 22:10:00,41.2,28.7,29.93,WSW,248,0.6,8.1,61,0.00,CLR,,0.00,WeatherDisplay:10.37,2013-05-13 02:10:00,
2013-05-12 22:15:00,41.2,28.7,29.93,NW,315,2.4,3.5,61,0.00,CLR,,0.00,WeatherDisplay:10.37,2013-05-13 02:15:00,
2013-05-12 22:20:00,41.0,29.0,29.94,NNW,338,0.9,1.1,62,0.00,CLR,,0.00,WeatherDisplay:10.37,2013-05-13 02:20:00,
2013-05-12 22:25:00,40.6,28.6,29.93,WNW,292,1.5,1.5,62,0.00,CLR,,0.00,WeatherDisplay:10.37,2013-05-13 02:25:00,
2013-05-12 22:30:00,40.6,29.0,29.94,West,270,1.8,3.5,63,0.00,CLR,,0.00,WeatherDisplay:10.37,2013-05-13 02:30:00,
2013-05-12 22:35:00,40.6,29.0,29.94,West,270,1.2,2.3,63,0.00,CLR,,0.00,WeatherDisplay:10.37,2013-05-13 02:35:00,
2013-05-12 22:40:00,40.5,28.8,29.94,NNW,338,0.6,2.3,63,0.00,CLR,,0.00,WeatherDisplay:10.37,2013-05-13 02:40:00,
2013-05-12 22:45:00,40.5,28.8,29.94,NW,315,0.3,2.3,63,0.00,CLR,,0.00,WeatherDisplay:10.37,2013-05-13 02:45:00,
2013-05-12 22:50:00,40.3,29.1,29.94,North,0,0.3,2.3,64,0.00,CLR,,0.00,WeatherDisplay:10.37,2013-05-13 02:50:00,
2013-05-12 22:55:00,40.1,28.9,29.94,NNW,338,0.0,1.1,64,0.00,CLR,,0.00,WeatherDisplay:10.37,2013-05-13 02:55:00,
2013-05-12 23:00:00,39.9,28.7,29.94,NW,315,0.0,1.1,64,0.00,CLR,,0.00,WeatherDisplay:10.37,2013-05-13 03:00:00,
2013-05-12 23:05:00,39.7,28.5,29.94,WNW,292,0.9,1.1,64,0.00,CLR,,0.00,WeatherDisplay:10.37,2013-05-13 03:05:00,
2013-05-12 23:10:00,39.6,28.8,29.94,WNW,292,1.5,1.5,65,0.00,CLR,,0.00,WeatherDisplay:10.37,2013-05-13 03:10:00,
2013-05-12 23:15:00,39.4,29.3,29.94,NNE,22,1.2,1.2,67,0.00,CLR,,0.00,WeatherDisplay:10.37,2013-05-13 03:15:00,
2013-05-12 23:20:00,39.2,28.8,29.94,NW,315,0.0,3.5,66,0.00,CLR,,0.00,WeatherDisplay:10.37,2013-05-13 03:20:00,
2013-05-12 23:25:00,39.2,28.8,29.94,West,270,0.0,1.1,66,0.00,CLR,,0.00,WeatherDisplay:10.37,2013-05-13 03:25:00,
2013-05-12 23:30:00,39.0,29.0,29.94,NW,315,1.8,2.3,67,0.00,CLR,,0.00,WeatherDisplay:10.37,2013-05-13 03:30:00,
2013-05-12 23:35:00,38.7,28.6,29.94,West,270,5.2,5.2,67,0.00,CLR,,0.00,WeatherDisplay:10.37,2013-05-13 03:35:00,
2013-05-12 23:40:00,39.0,29.0,29.94,North,0,0.3,1.1,67,0.00,CLR,,0.00,WeatherDisplay:10.37,2013-05-13 03:40:00,
2013-05-12 23:45:00,38.8,28.8,29.94,West,270,3.1,3.1,67,0.00,CLR,,0.00,WeatherDisplay:10.37,2013-05-13 03:45:00,
2013-05-12 23:50:00,38.8,28.8,29.94,West,270,1.5,1.5,67,0.00,CLR,,0.00,WeatherDisplay:10.37,2013-05-13 03:50:00,
2013-05-12 23:55:00,38.8,28.8,29.94,WSW,248,0.0,0.0,67,0.00,CLR,,0.00,WeatherDisplay:10.37,2013-05-13 03:55:00,